Temp
76 74 75 75 76 76 75 75 75 75 76 76 76 77 77 76 75 75 75 75 76 77 77 76 75 75 75 75 73 74 75 74 72 68 67 69 66 66 67 65 65 64 63 61 63 62 61 59 61 64 66 67 70 71 72 71 70 66 67 68 68 67 69
77 76 77 77 76 76 74 76 75 76 76 76 76 75 75 76 75 75 74 75 75 76 77 76 74 74 72 72 72 71 71 71 72 71 71 70 70 67 67 65 66 67 66 65 65 67 64 61 61 61 62 65 66 69 70 72 72 72 71 70 72 74 73
77 77 78 76 75 75 74 73 74 74 75 74 75 76 75 76 75 75 74 74 73 74 74 74 73 72 72 71 71 71 71 71 71 71 69 70 71 70 71 70 69 68 66 65 66 68 67 65 61 63 65 63 60 64 68 69 71 73 75 76 74 76 77
76 76 75 74 75 74 73 73 74 74 75 74 74 74 74 75 74 74 73 73 73 73 74 75 73 74 72 71 71 71 71 70 70 70 69 69 70 69 70 71 70 69 67 67 66 69 67 65 65 65 66 67 66 64 66 69 71 74 76 77 76 78 79
76 76 74 73 74 74 74 74 75 75 74 74 73 73 73 73 73 73 73 73 73 73 73 74 74 74 73 73 73 72 71 71 70 70 68 67 67 68 67 69 69 70 69 69 69 68 67 67 65 64 65 68 68 69 73 71 74 74 76 77 78 78 80
77 76 76 75 75 75 75 75 74 74 74 73 73 72 72 73 73 72 72 72 72 72 72 73 73 73 73 73 72 71 70 70 69 68 68 66 66 65 65 68 70 71 69 69 69 68 68 68 66 64 67 69 63 65 70 71 70 75 77 77 78 79 80
77 77 77 76 76 77 77 75 75 75 74 73 73 72 73 74 74 73 73 72 73 72 72 72 72 74 74 74 72 71 70 70 70 69 68 68 67 67 67 67 67 69 68 69 68 68 68 67 65 64 63 65 65 65 70 71 74 73 77 80 80 80 81
78 78 78 78 77 77 77 76 76 77 76 75 75 74 74 74 73 73 72 72 72 72 72 71 72 72 73 73 73 71 71 71 70 69 68 67 67 67 66 66 66 68 67 70 69 68 70 68 67 66 63 60 62 65 65 71 72 72 74 79 83 83 83
79 79 79 79 78 78 77 76 76 76 77 77 76 75 74 74 73 72 72 72 72 72 72 72 72 73 72 72 71 70 70 72 69 69 69 68 67 66 67 67 68 68 67 68 69 68 68 67 67 67 66 64 60 59 64 64 68 70 76 75 80 83 84
78 78 78 78 78 78 78 77 77 77 77 77 76 75 74 74 73 72 72 72 71 72 72 72 72 72 72 72 71 70 69 71 70 69 69 69 68 68 67 67 68 69 68 67 68 67 67 66 67 67 68 65 64 60 59 61 64 66 71 75 71 76 82
78 79 79 79 79 78 78 78 78 76 76 77 77 75 74 74 73 73 72 72 71 71 71 72 73 72 71 72 71 71 71 70 69 69 69 69 68 69 68 68 68 69 68 67 67 66 66 66 66 66 67 68 67 63 62 59 61 66 68 72 74 74 77
79 78 79 80 79 78 77 77 77 77 77 77 76 74 74 74 73 72 72 72 71 71 72 71 71 71 72 71 70 71 70 70 70 69 69 68 68 68 67 66 67 68 68 67 67 67 67 67 67 68 67 67 67 65 63 62 59 66 70 67 72 76 75
80 79 78 77 78 77 78 77 78 77 76 77 76 75 75 74 73 73 73 72 71 71 71 71 71 71 71 70 70 71 70 70 70 69 69 69 70 68 67 66 66 68 68 68 69 68 68 67 67 66 67 66 66 66 65 63 60 61 68 68 70 72 75
78 80 78 76 76 78 78 77 78 78 79 77 77 75 75 75 75 74 74 73 73 72 71 70 71 71 71 70 70 71 70 70 70 69 69 67 68 67 68 68 67 67 67 65 67 68 69 69 68 67 67 66 65 66 65 63 61 62 66 70 69 71 73
76 77 74 74 72 70 72 75 75 77 77 77 77 76 77 76 75 75 75 74 73 73 72 72 72 71 71 70 70 70 69 70 69 70 68 68 68 67 66 67 68 67 68 67 66 69 71 71 71 71 70 69 68 67 67 63 62 61 60 65 67 71 71
75 73 74 74 74 70 67 65 70 72 75 78 77 77 77 76 76 76 75 74 74 74 73 73 71 71 71 70 70 68 69 69 69 67 67 67 69 68 66 66 66 66 66 64 65 66 67 68 70 70 68 68 66 66 67 67 63 60 59 61 65 67 68
73 73 73 74 73 73 73 72 71 69 68 71 75 77 77 78 76 75 75 75 75 74 73 72 72 72 72 71 70 69 69 69 69 68 68 68 69 68 67 66 66 66 65 64 65 66 67 67 67 67 67 67 67 67 67 66 65 62 61 59 63 66 68
72 71 69 71 71 72 73 74 74 75 73 70 69 68 74 78 77 76 74 74 74 74 73 73 72 71 71 71 70 70 69 69 68 68 68 68 65 67 67 65 66 67 66 64 64 65 67 65 67 66 65 67 67 67 67 67 66 66 63 61 62 65 66
69 69 71 71 71 69 69 73 72 70 74 74 71 70 70 74 77 76 76 76 75 75 74 73 72 72 72 71 70 70 69 69 68 69 68 67 67 66 65 66 66 66 65 64 63 64 64 64 64 64 64 65 66 65 63 64 64 64 64 63 63 62 65
67 69 70 70 70 71 71 71 72 74 75 73 74 74 74 72 70 72 76 76 75 75 74 73 72 71 72 71 70 70 68 68 67 67 67 67 67 67 66 66 65 65 64 64 63 63 63 62 62 62 62 62 64 63 62 63 64 63 62 62 62 63 63
70 71 72 72 72 71 70 71 71 71 71 71 70 74 74 73 67 68 71 76 76 75 74 73 72 72 72 71 69 69 68 67 67 66 66 66 66 66 65 65 65 65 64 65 63 63 62 61 61 61 62 62 62 61 61 61 61 62 61 61 61 62 63
66 68 69 69 70 71 72 72 71 67 65 65 67 70 69 73 70 66 71 74 75 74 72 71 71 70 69 69 69 67 67 67 66 65 64 65 65 65 65 65 65 66 61 53 47 50 50 50 57 58 59 60 60 59 59 60 60 61 61 60 61 62 62
71 70 69 69 70 70 70 71 71 72 70 70 70 70 72 71 69 70 71 69 75 70 71 71 65 58 60 69 68 68 66 66 66 65 64 64 63 64 64 64 64 55 52 52 52 48 45 44 46 53 57 57 57 57 56 56 57 58 58 58 59 60 59
71 71 72 71 71 71 71 71 72 72 72 73 72 71 71 71 70 69 70 71 65 69 69 69 51 50 51 55 66 66 65 65 65 65 64 64 62 63 63 65 65 57 55 51 54 45 45 44 44 43 44 46 49 53 54 53 54 55 55 56 57 58 58
70 70 70 71 71 72 71 71 71 71 71 71 71 72 71 71 71 69 69 70 69 67 66 49 45 46 48 49 54 65 64 64 64 64 64 64 64 64 63 63 63 63 62 61 62 59 51 44 43 43 42 42 42 42 45 51 52 52 53 53 54 55 56
70 69 70 70 71 71 71 71 71 71 70 71 70 69 69 69 70 69 67 65 63 64 58 45 45 45 45 46 45 55 65 64 62 59 64 64 64 64 64 63 63 62 63 55 58 60 61 59 47 42 43 43 43 42 41 40 43 51 54 52 52 52 54
69 69 70 70 71 72 71 71 71 71 71 70 69 68 68 66 67 67 66 65 62 58 57 44 44 44 44 44 44 47 62 64 62 64 63 64 63 62 62 62 61 61 62 62 62 61 61 60 60 57 55 55 56 52 43 41 41 41 45 51 52 51 53
69 69 69 70 69 70 70 70 70 70 70 70 69 68 67 66 65 65 65 64 59 55 54 42 42 43 42 43 42 44 62 63 62 62 63 63 63 62 62 61 61 60 61 60 61 58 59 59 58 57 56 56 56 57 57 57 55 53 51 51 52 54 54
68 69 68 69 69 69 69 69 68 69 69 70 70 70 69 68 66 65 63 59 57 54 49 40 41 42 42 42 41 54 59 59 59 61 62 62 62 63 62 61 61 60 61 60 51 43 50 57 56 55 54 54 54 55 56 53 50 51 56 57 57 57 57
68 68 68 68 68 68 68 69 69 70 68 68 68 68 69 68 67 64 62 60 56 53 48 42 41 41 41 40 45 58 60 60 60 60 60 62 62 62 62 62 62 61 60 61 48 40 41 45 54 54 53 52 53 53 54 56 51 46 44 45 45 45 45
68 67 68 67 67 68 68 69 69 70 68 68 67 67 68 67 65 64 61 58 57 53 50 44 40 40 40 40 48 55 57 59 60 61 62 62 62 63 63 56 57 60 60 59 48 39 38 46 53 53 52 51 50 50 52 55 55 56 48 44 43 43 44
68 67 67 67 67 67 67 68 69 69 69 68 68 68 68 65 63 61 61 61 53 53 52 46 39 40 40 39 46 54 54 57 60 60 61 62 63 63 63 57 51 54 57 54 41 39 38 45 52 52 51 50 49 49 52 53 53 52 53 54 55 54 51
68 67 67 67 67 67 68 68 68 68 68 69 69 69 67 64 60 59 59 59 57 56 53 49 44 39 40 39 41 52 55 56 59 60 61 61 60 61 62 62 56 41 39 36 37 37 38 37 46 49 49 48 47 47 53 52 51 49 48 48 49 50 50
68 67 68 66 67 67 67 67 68 67 66 67 67 66 62 59 58 57 57 57 57 56 54 51 46 39 40 40 39 41 53 56 58 58 59 59 60 59 60 61 55 39 38 37 37 36 38 38 39 44 46 46 47 46 43 46 46 44 47 47 47 47 48
68 66 67 66 65 65 67 68 67 67 66 64 62 62 59 56 56 55 56 56 55 54 52 49 48 40 39 39 39 38 49 55 53 57 55 57 58 58 59 59 58 40 37 38 38 37 37 37 37 43 44 41 39 37 44 45 45 46 46 45 45 45 46
66 66 65 65 65 64 65 66 66 65 62 59 58 57 56 56 55 54 54 54 54 53 52 49 44 45 38 39 38 38 36 46 42 53 55 55 55 56 58 57 56 41 40 39 39 38 39 38 39 45 40 38 38 37 39 45 45 44 44 44 44 43 44
66 66 66 65 64 64 64 64 63 62 58 56 55 53 53 52 51 50 50 52 52 52 51 50 43 42 42 38 38 38 36 36 40 51 53 54 55 55 56 56 51 41 40 40 40 40 39 39 43 39 38 38 37 38 43 44 44 43 42 42 41 42 43
MSLP
1015.24 1015.72 1015.72 1015.84 1015.88 1016.04 1016.32 1016.48 1016.56 1016.64 1016.60 1016.68 1016.76 1016.72 1016.76 1016.84 1016.96 1017.00 1016.96 1016.88 1016.76 1016.72 1016.76 1016.96 1017.08 1017.12 1017.20 1017.36 1017.48 1017.32 1017.12 1017.20 1017.52 1017.96 1018.12 1018.00 1018.36 1018.52 1018.60 1018.76 1018.88 1019.04 1019.12 1019.52 1019.72 1019.68 1019.72 1019.96 1019.40 1018.88 1018.64 1018.56 1018.28 1018.12 1018.04 1018.00 1018.08 1018.08 1017.80 1017.84 1017.96 1018.32 1018.00
1015.08 1015.44 1015.48 1015.68 1015.96 1016.12 1016.40 1016.36 1016.44 1016.64 1016.76 1016.80 1016.84 1017.04 1017.08 1017.16 1017.20 1017.28 1017.28 1017.24 1017.12 1017.00 1016.96 1017.20 1017.40 1017.48 1017.68 1017.72 1017.76 1017.80 1017.84 1017.88 1017.64 1017.76 1017.84 1017.96 1018.00 1018.48 1018.56 1018.84 1018.80 1018.88 1019.08 1019.28 1019.32 1019.00 1019.28 1019.64 1019.48 1019.52 1019.24 1018.60 1018.48 1018.20 1018.00 1017.84 1017.84 1017.68 1017.52 1017.40 1017.44 1017.36 1017.40
1014.96 1015.16 1015.28 1015.80 1016.04 1016.24 1016.56 1016.68 1016.72 1016.80 1016.96 1017.08 1017.08 1017.12 1017.24 1017.28 1017.40 1017.44 1017.52 1017.60 1017.56 1017.52 1017.44 1017.64 1017.80 1017.92 1017.92 1018.00 1018.08 1018.08 1018.08 1018.16 1018.16 1018.24 1018.32 1018.24 1018.12 1018.24 1018.12 1018.32 1018.48 1018.52 1018.92 1019.16 1019.00 1018.76 1018.84 1019.12 1019.60 1019.20 1018.92 1019.08 1019.16 1018.40 1018.04 1018.04 1017.80 1017.56 1017.16 1016.84 1016.80 1016.80 1016.60
1014.92 1015.12 1015.52 1015.92 1016.04 1016.24 1016.56 1016.64 1016.68 1016.80 1016.88 1017.16 1017.28 1017.40 1017.40 1017.48 1017.60 1017.64 1017.72 1017.76 1017.76 1017.72 1017.64 1017.68 1017.76 1017.80 1018.00 1018.16 1018.20 1018.28 1018.36 1018.44 1018.48 1018.60 1018.64 1018.72 1018.56 1018.68 1018.56 1018.44 1018.48 1018.60 1018.80 1018.88 1018.88 1018.52 1018.92 1019.08 1019.08 1018.92 1018.72 1018.60 1018.64 1018.52 1017.96 1017.68 1017.60 1017.32 1017.08 1016.76 1016.64 1016.44 1016.24
1014.92 1015.20 1015.52 1015.88 1016.00 1016.16 1016.36 1016.52 1016.52 1016.72 1016.92 1017.16 1017.32 1017.48 1017.60 1017.68 1017.76 1017.88 1017.84 1017.84 1017.92 1017.92 1017.96 1017.84 1017.84 1017.92 1017.96 1018.04 1018.16 1018.28 1018.48 1018.56 1018.64 1018.72 1018.92 1019.12 1019.08 1018.92 1019.04 1018.88 1018.80 1018.76 1018.76 1018.80 1018.84 1018.96 1019.04 1019.04 1019.24 1019.20 1019.04 1018.48 1018.32 1018.12 1017.52 1017.44 1017.20 1017.12 1016.92 1016.68 1016.32 1016.08 1015.88
1014.84 1015.04 1015.24 1015.56 1015.68 1015.88 1016.04 1016.20 1016.44 1016.64 1016.88 1017.16 1017.32 1017.52 1017.68 1017.72 1017.80 1017.92 1017.96 1018.04 1018.12 1018.16 1018.16 1018.16 1018.20 1018.16 1018.16 1018.24 1018.40 1018.52 1018.64 1018.76 1018.96 1019.04 1019.20 1019.40 1019.40 1019.52 1019.52 1019.20 1019.00 1018.88 1019.04 1019.12 1019.12 1019.12 1019.04 1019.16 1019.24 1019.36 1018.72 1018.44 1018.96 1018.68 1018.04 1017.56 1017.44 1016.72 1016.32 1016.20 1016.00 1015.76 1015.52
1014.72 1014.84 1014.96 1015.20 1015.32 1015.40 1015.56 1015.96 1016.12 1016.28 1016.60 1016.88 1017.12 1017.32 1017.52 1017.52 1017.60 1017.72 1017.88 1018.04 1018.12 1018.24 1018.32 1018.32 1018.32 1018.24 1018.16 1018.24 1018.48 1018.64 1018.80 1018.88 1018.96 1019.08 1019.24 1019.36 1019.44 1019.52 1019.56 1019.52 1019.52 1019.36 1019.40 1019.36 1019.44 1019.32 1019.28 1019.40 1019.44 1019.44 1019.36 1019.08 1018.92 1018.76 1018.04 1017.60 1016.92 1016.88 1016.08 1015.44 1015.24 1015.24 1015.16
1014.36 1014.60 1014.68 1014.76 1015.04 1015.16 1015.24 1015.60 1015.80 1015.84 1016.16 1016.48 1016.76 1016.96 1017.28 1017.36 1017.56 1017.76 1017.92 1018.08 1018.16 1018.24 1018.32 1018.40 1018.44 1018.48 1018.40 1018.36 1018.60 1018.80 1018.88 1018.96 1019.08 1019.20 1019.40 1019.52 1019.64 1019.68 1019.72 1019.72 1019.68 1019.48 1019.68 1019.44 1019.48 1019.44 1019.24 1019.20 1019.32 1019.40 1019.64 1019.72 1019.16 1018.68 1018.36 1017.64 1017.28 1017.04 1016.60 1015.52 1014.84 1014.64 1014.56
1013.96 1014.20 1014.40 1014.44 1014.68 1014.88 1015.04 1015.36 1015.60 1015.72 1015.76 1016.08 1016.36 1016.76 1017.20 1017.28 1017.56 1017.76 1017.92 1018.04 1018.12 1018.24 1018.32 1018.36 1018.36 1018.44 1018.56 1018.60 1018.76 1018.96 1019.08 1019.04 1019.28 1019.32 1019.36 1019.52 1019.72 1019.76 1019.76 1019.80 1019.60 1019.64 1019.72 1019.76 1019.64 1019.60 1019.64 1019.64 1019.52 1019.40 1019.40 1019.56 1019.68 1019.36 1018.52 1018.32 1017.80 1017.44 1016.56 1016.40 1015.40 1014.76 1014.44
1013.88 1014.08 1014.24 1014.36 1014.56 1014.72 1014.88 1015.12 1015.36 1015.56 1015.56 1015.84 1016.16 1016.56 1017.00 1017.20 1017.48 1017.68 1017.84 1018.00 1018.12 1018.16 1018.28 1018.32 1018.36 1018.48 1018.56 1018.60 1018.80 1019.00 1019.08 1019.04 1019.12 1019.28 1019.32 1019.36 1019.60 1019.56 1019.68 1019.80 1019.68 1019.52 1019.60 1019.76 1019.72 1019.76 1019.80 1019.76 1019.68 1019.56 1019.36 1019.40 1019.44 1019.72 1019.52 1019.00 1018.28 1017.88 1017.12 1016.80 1017.08 1015.92 1015.04
1013.76 1013.88 1013.96 1014.16 1014.36 1014.68 1014.88 1015.04 1015.16 1015.52 1015.68 1015.76 1015.96 1016.40 1016.76 1017.04 1017.36 1017.56 1017.72 1017.96 1018.08 1018.16 1018.24 1018.28 1018.32 1018.48 1018.56 1018.64 1018.80 1018.84 1018.96 1019.08 1019.24 1019.32 1019.32 1019.40 1019.44 1019.48 1019.60 1019.56 1019.60 1019.48 1019.60 1019.76 1019.72 1019.88 1019.84 1019.84 1019.84 1019.68 1019.48 1019.24 1019.20 1019.52 1019.48 1019.56 1018.96 1018.20 1017.76 1017.08 1016.88 1016.60 1015.96
1013.56 1013.76 1013.84 1013.96 1014.20 1014.64 1015.00 1015.04 1015.20 1015.32 1015.52 1015.72 1015.96 1016.32 1016.64 1016.88 1017.12 1017.36 1017.52 1017.80 1018.00 1018.16 1018.20 1018.28 1018.32 1018.44 1018.44 1018.64 1018.80 1018.84 1019.04 1019.04 1019.12 1019.28 1019.36 1019.48 1019.52 1019.52 1019.68 1019.72 1019.60 1019.44 1019.52 1019.60 1019.64 1019.60 1019.64 1019.68 1019.64 1019.56 1019.44 1019.36 1019.32 1019.40 1019.52 1019.56 1019.52 1018.24 1017.72 1017.72 1017.12 1016.72 1016.64
1013.32 1013.64 1014.04 1014.28 1014.28 1014.76 1014.80 1015.04 1015.16 1015.32 1015.52 1015.60 1015.80 1016.12 1016.40 1016.64 1016.88 1017.16 1017.32 1017.52 1017.80 1017.96 1018.12 1018.20 1018.28 1018.36 1018.40 1018.56 1018.68 1018.72 1018.88 1018.96 1019.04 1019.24 1019.32 1019.44 1019.44 1019.52 1019.68 1019.72 1019.68 1019.52 1019.52 1019.44 1019.24 1019.28 1019.40 1019.48 1019.60 1019.68 1019.56 1019.56 1019.48 1019.40 1019.44 1019.52 1019.44 1019.04 1018.16 1018.00 1017.60 1017.24 1016.84
1013.44 1013.40 1013.84 1014.52 1014.76 1014.52 1014.64 1014.84 1014.96 1015.16 1015.36 1015.60 1015.68 1016.04 1016.20 1016.32 1016.56 1016.80 1017.00 1017.24 1017.48 1017.68 1017.88 1018.08 1018.08 1018.20 1018.32 1018.48 1018.52 1018.60 1018.84 1018.92 1018.96 1019.04 1019.12 1019.40 1019.48 1019.56 1019.48 1019.44 1019.56 1019.68 1019.72 1019.76 1019.40 1019.24 1019.20 1019.20 1019.28 1019.32 1019.36 1019.48 1019.52 1019.40 1019.44 1019.44 1019.40 1018.96 1018.36 1017.84 1017.76 1017.52 1017.08
1013.84 1013.84 1014.16 1014.28 1014.84 1015.56 1015.68 1015.44 1015.44 1015.36 1015.40 1015.48 1015.68 1015.92 1015.96 1016.00 1016.16 1016.40 1016.60 1016.84 1017.08 1017.28 1017.48 1017.68 1017.84 1018.04 1018.12 1018.36 1018.48 1018.60 1018.80 1018.80 1018.88 1018.88 1019.16 1019.28 1019.32 1019.52 1019.68 1019.56 1019.40 1019.56 1019.64 1019.68 1019.64 1019.32 1018.80 1018.76 1018.76 1018.72 1018.60 1018.68 1018.84 1019.00 1019.08 1019.36 1019.28 1019.20 1018.92 1018.40 1018.08 1017.56 1017.40
1013.72 1014.20 1014.32 1014.36 1014.48 1015.04 1015.68 1016.36 1016.32 1015.96 1015.60 1015.36 1015.60 1015.72 1015.80 1015.84 1015.92 1016.04 1016.24 1016.44 1016.72 1016.96 1017.20 1017.36 1017.56 1017.72 1017.88 1018.12 1018.32 1018.52 1018.56 1018.60 1018.72 1018.92 1019.16 1019.12 1019.08 1019.28 1019.52 1019.56 1019.52 1019.56 1019.72 1019.80 1019.72 1019.56 1019.36 1019.28 1018.96 1018.80 1018.88 1018.88 1019.00 1019.04 1019.04 1019.04 1019.20 1019.24 1019.08 1018.72 1018.36 1018.00 1017.56
1013.88 1013.92 1014.12 1014.24 1014.44 1014.60 1014.96 1015.32 1015.48 1015.80 1016.04 1015.92 1015.68 1015.48 1015.60 1015.68 1015.76 1015.92 1016.04 1016.20 1016.36 1016.64 1016.84 1017.04 1017.32 1017.40 1017.52 1017.80 1018.04 1018.24 1018.40 1018.44 1018.60 1018.72 1018.84 1018.88 1018.88 1019.04 1019.24 1019.40 1019.44 1019.52 1019.64 1019.68 1019.64 1019.48 1019.32 1019.24 1019.24 1019.08 1019.00 1018.84 1018.76 1018.72 1018.68 1018.76 1018.92 1019.00 1018.88 1018.72 1018.20 1018.00 1017.56
1014.12 1014.36 1014.64 1014.52 1014.52 1014.60 1014.72 1014.84 1015.04 1015.12 1015.28 1015.60 1015.68 1016.12 1015.80 1015.40 1015.48 1015.60 1015.80 1015.88 1015.96 1016.08 1016.28 1016.52 1016.88 1017.20 1017.36 1017.60 1017.84 1018.00 1018.20 1018.28 1018.48 1018.56 1018.64 1018.76 1018.92 1019.04 1019.16 1019.36 1019.28 1019.32 1019.52 1019.64 1019.60 1019.52 1019.28 1019.36 1019.36 1019.32 1019.24 1019.00 1018.80 1018.56 1018.56 1018.52 1018.48 1018.48 1018.48 1018.40 1018.12 1017.84 1017.60
1014.52 1014.64 1014.28 1014.20 1014.40 1014.80 1015.12 1014.88 1015.00 1015.20 1014.96 1014.96 1015.24 1015.36 1015.60 1015.36 1015.16 1015.32 1015.40 1015.40 1015.40 1015.60 1015.88 1016.20 1016.60 1016.92 1017.12 1017.48 1017.68 1017.84 1018.04 1018.20 1018.36 1018.48 1018.64 1018.80 1018.96 1019.16 1019.24 1019.20 1019.32 1019.40 1019.48 1019.60 1019.60 1019.56 1019.60 1019.60 1019.56 1019.52 1019.40 1019.28 1019.04 1018.96 1018.96 1018.84 1018.72 1018.56 1018.40 1018.16 1017.96 1017.68 1017.36
1014.88 1014.56 1014.36 1014.36 1014.36 1014.40 1014.64 1014.80 1014.72 1014.68 1014.56 1014.72 1014.84 1014.96 1014.96 1015.12 1015.52 1015.48 1015.04 1015.12 1015.28 1015.44 1015.72 1016.00 1016.40 1016.68 1016.92 1017.20 1017.52 1017.76 1018.04 1018.16 1018.36 1018.44 1018.56 1018.76 1018.84 1019.00 1019.16 1019.20 1019.32 1019.40 1019.52 1019.60 1019.68 1019.72 1019.68 1019.72 1019.72 1019.68 1019.60 1019.44 1019.24 1019.08 1019.04 1018.88 1018.72 1018.60 1018.48 1018.28 1017.96 1017.72 1017.40
1014.56 1014.52 1014.20 1014.04 1014.04 1014.16 1014.48 1014.60 1014.56 1014.56 1014.56 1014.76 1015.04 1014.92 1014.84 1014.88 1015.28 1015.76 1015.64 1015.16 1015.08 1015.16 1015.44 1015.80 1016.16 1016.48 1016.72 1017.00 1017.28 1017.56 1017.88 1018.12 1018.36 1018.52 1018.64 1018.72 1018.84 1019.00 1019.12 1019.16 1019.24 1019.32 1019.44 1019.52 1019.72 1019.80 1019.88 1019.92 1019.84 1019.80 1019.60 1019.56 1019.44 1019.36 1019.16 1018.96 1018.80 1018.60 1018.40 1018.12 1017.84 1017.56 1017.28
1014.68 1014.80 1014.56 1014.44 1014.32 1014.28 1014.12 1014.08 1014.20 1014.44 1014.56 1014.56 1014.68 1014.84 1015.24 1014.88 1015.12 1016.04 1015.72 1015.00 1014.96 1015.04 1015.28 1015.48 1015.60 1015.96 1016.48 1016.84 1017.16 1017.56 1017.84 1018.16 1018.32 1018.56 1018.80 1018.84 1018.92 1019.08 1019.12 1019.16 1019.20 1019.20 1019.56 1020.04 1020.32 1020.52 1020.64 1020.80 1020.68 1020.28 1020.00 1019.88 1019.76 1019.60 1019.36 1019.08 1018.80 1018.56 1018.28 1018.08 1017.76 1017.44 1017.16
1014.32 1014.40 1014.40 1014.20 1014.04 1013.96 1013.96 1014.00 1014.04 1014.12 1014.28 1014.32 1014.44 1014.52 1014.44 1014.56 1014.88 1014.84 1014.96 1015.36 1014.80 1015.20 1015.20 1015.28 1015.32 1015.68 1016.12 1016.52 1017.00 1017.36 1017.84 1018.20 1018.36 1018.48 1018.72 1018.76 1019.00 1019.04 1019.04 1019.08 1019.20 1019.56 1019.80 1019.96 1020.32 1020.56 1020.72 1020.84 1021.00 1020.88 1020.60 1020.48 1020.32 1020.16 1019.96 1019.64 1019.28 1018.88 1018.56 1018.24 1017.84 1017.56 1017.32
1014.16 1014.12 1013.96 1013.92 1013.92 1013.92 1013.92 1013.88 1013.96 1013.92 1013.96 1014.00 1014.12 1014.20 1014.28 1014.36 1014.44 1014.64 1014.60 1014.76 1015.64 1015.24 1015.08 1015.24 1015.60 1015.84 1016.24 1016.64 1016.88 1017.32 1017.76 1018.20 1018.32 1018.40 1018.56 1018.64 1018.84 1018.92 1019.00 1019.04 1019.04 1019.48 1019.68 1019.96 1020.20 1020.44 1020.52 1020.72 1020.72 1020.84 1020.96 1020.92 1020.92 1020.88 1020.64 1020.32 1019.92 1019.56 1019.20 1018.68 1018.20 1017.92 1017.52
1014.20 1014.20 1014.20 1014.12 1014.04 1013.96 1013.96 1013.96 1013.92 1013.92 1013.88 1013.92 1013.92 1013.92 1014.12 1014.12 1014.04 1014.36 1014.40 1014.44 1014.72 1015.12 1015.48 1015.76 1016.08 1016.44 1016.68 1016.84 1017.08 1017.36 1017.76 1018.00 1018.24 1018.36 1018.52 1018.60 1018.56 1018.60 1018.72 1018.80 1018.92 1019.04 1019.28 1019.36 1019.40 1019.72 1020.24 1020.44 1020.44 1020.52 1020.64 1020.72 1020.76 1020.80 1020.76 1020.68 1020.40 1020.04 1019.68 1019.20 1018.72 1018.28 1017.92
1014.16 1014.16 1014.16 1014.08 1014.04 1014.00 1013.96 1013.92 1013.80 1013.72 1013.76 1013.68 1013.80 1013.96 1014.12 1014.28 1014.16 1014.24 1014.56 1014.92 1015.44 1015.64 1016.28 1016.76 1016.72 1016.96 1017.24 1017.32 1017.48 1017.52 1017.56 1017.76 1018.24 1018.48 1018.40 1018.48 1018.40 1018.32 1018.44 1018.60 1018.72 1018.88 1018.84 1019.20 1019.44 1019.44 1019.40 1019.44 1019.88 1020.20 1020.28 1020.36 1020.40 1020.40 1020.36 1020.40 1020.40 1020.20 1019.80 1019.56 1019.24 1018.84 1018.60
1014.12 1014.12 1014.08 1014.04 1013.96 1013.84 1013.76 1013.76 1013.68 1013.56 1013.48 1013.52 1013.72 1013.96 1014.12 1014.40 1014.32 1014.36 1014.52 1014.88 1015.40 1016.28 1016.84 1017.28 1016.96 1017.24 1017.48 1017.72 1017.96 1018.40 1017.92 1017.68 1018.04 1018.04 1018.24 1018.36 1018.44 1018.52 1018.56 1018.68 1018.72 1018.68 1018.64 1018.76 1018.84 1018.92 1018.96 1019.08 1019.12 1019.56 1019.88 1019.92 1019.68 1019.68 1019.92 1020.00 1019.88 1019.92 1019.92 1019.52 1019.20 1018.88 1018.60
1014.04 1014.08 1014.04 1014.00 1013.96 1013.88 1013.76 1013.68 1013.64 1013.56 1013.44 1013.40 1013.56 1013.72 1013.92 1014.12 1014.32 1014.44 1014.52 1014.84 1015.72 1016.60 1017.04 1017.20 1017.16 1017.40 1017.72 1018.00 1018.32 1018.36 1017.84 1017.72 1018.08 1018.16 1018.12 1018.24 1018.40 1018.52 1018.56 1018.68 1018.72 1018.64 1018.60 1018.68 1018.68 1018.84 1019.08 1019.16 1019.32 1019.44 1019.52 1019.52 1019.52 1019.32 1019.04 1018.92 1019.00 1019.16 1019.28 1019.24 1018.88 1018.56 1018.32
1013.92 1013.96 1013.96 1013.92 1013.88 1013.76 1013.60 1013.56 1013.60 1013.52 1013.40 1013.28 1013.20 1013.28 1013.48 1013.72 1014.00 1014.28 1014.76 1015.36 1016.00 1016.68 1017.52 1017.56 1017.48 1017.76 1018.08 1018.28 1018.32 1018.48 1018.12 1018.28 1018.52 1018.20 1018.08 1018.20 1018.44 1018.40 1018.44 1018.52 1018.48 1018.48 1018.44 1018.48 1018.76 1019.20 1019.36 1019.44 1019.44 1019.48 1019.52 1019.52 1019.40 1019.16 1018.88 1018.68 1018.64 1018.52 1018.40 1018.16 1017.92 1017.72 1017.60
1013.80 1013.84 1013.84 1013.88 1013.80 1013.64 1013.52 1013.40 1013.36 1013.28 1013.36 1013.36 1013.40 1013.36 1013.32 1013.48 1013.76 1014.20 1014.76 1015.32 1016.12 1016.84 1017.64 1017.88 1017.72 1017.96 1018.12 1018.20 1018.44 1018.36 1018.04 1018.08 1018.12 1018.12 1018.20 1018.16 1018.24 1018.20 1018.24 1018.28 1018.20 1018.16 1018.28 1018.32 1018.84 1019.28 1019.52 1019.64 1019.48 1019.44 1019.40 1019.32 1019.16 1018.96 1018.72 1018.40 1018.20 1018.12 1018.00 1017.96 1017.92 1017.88 1017.80
1013.68 1013.72 1013.72 1013.68 1013.60 1013.44 1013.28 1013.12 1013.12 1013.04 1013.20 1013.20 1013.28 1013.40 1013.32 1013.56 1014.00 1014.40 1014.88 1015.52 1016.20 1016.92 1017.56 1017.96 1018.04 1018.16 1018.24 1018.24 1018.28 1018.32 1018.12 1017.84 1017.76 1017.76 1017.80 1017.92 1017.96 1017.84 1017.80 1018.04 1018.12 1018.12 1018.16 1018.28 1018.56 1019.08 1019.36 1019.48 1019.28 1019.24 1019.20 1019.16 1019.00 1018.88 1018.56 1018.24 1018.00 1017.80 1017.68 1017.60 1017.52 1017.40 1017.24
1013.56 1013.60 1013.60 1013.48 1013.44 1013.36 1013.20 1013.00 1012.92 1012.88 1013.00 1013.08 1013.12 1013.12 1013.32 1013.72 1014.16 1014.76 1015.24 1015.64 1016.48 1016.92 1017.36 1018.08 1018.44 1018.28 1018.32 1018.48 1018.64 1018.48 1018.36 1018.04 1017.60 1017.56 1017.56 1017.48 1017.52 1017.48 1017.44 1017.52 1017.84 1017.88 1017.88 1018.20 1018.96 1019.52 1019.76 1019.60 1019.24 1019.20 1019.16 1019.04 1018.92 1018.56 1018.20 1018.28 1018.00 1017.88 1017.64 1017.32 1017.04 1016.96 1016.92
1013.16 1013.28 1013.32 1013.24 1013.24 1013.16 1013.00 1012.80 1012.76 1012.88 1012.92 1012.88 1012.88 1012.92 1013.24 1013.92 1014.48 1015.16 1015.68 1016.24 1016.52 1016.64 1017.16 1018.00 1018.56 1018.44 1018.52 1018.60 1018.68 1018.56 1018.48 1018.28 1017.64 1017.40 1017.48 1017.44 1017.36 1017.32 1017.36 1017.28 1017.44 1018.36 1018.80 1019.16 1019.32 1019.64 1019.80 1020.04 1019.88 1019.56 1019.40 1019.12 1018.88 1018.48 1018.04 1018.12 1018.20 1018.36 1018.24 1018.24 1017.92 1017.68 1017.32
1012.80 1012.88 1012.92 1013.00 1012.96 1012.92 1012.84 1012.72 1012.64 1012.80 1012.96 1012.88 1012.88 1013.16 1013.88 1014.60 1014.96 1015.68 1016.24 1016.48 1016.52 1016.72 1017.08 1017.64 1018.40 1018.56 1018.68 1018.76 1018.88 1019.04 1018.84 1018.28 1017.84 1017.72 1017.52 1017.44 1017.32 1017.28 1017.20 1017.16 1018.12 1019.20 1019.24 1019.64 1019.76 1019.80 1020.04 1020.16 1020.28 1020.08 1019.68 1019.28 1018.96 1018.76 1019.08 1018.96 1018.52 1018.64 1018.36 1018.16 1017.96 1017.60 1017.28
1012.56 1012.68 1012.76 1012.80 1012.84 1012.72 1012.60 1012.56 1012.52 1012.60 1012.84 1013.16 1013.48 1013.64 1014.40 1015.20 1015.64 1016.12 1016.40 1016.56 1016.84 1017.08 1017.40 1017.72 1018.32 1018.80 1018.84 1019.00 1019.12 1019.28 1019.08 1018.44 1018.48 1018.12 1018.08 1017.68 1017.56 1017.44 1017.32 1017.36 1017.72 1019.44 1019.52 1019.68 1019.80 1019.88 1019.92 1020.00 1020.04 1019.92 1019.40 1019.28 1019.24 1019.32 1019.16 1018.96 1018.64 1018.36 1018.12 1017.96 1017.76 1017.44 1017.16
1012.48 1012.44 1012.52 1012.60 1012.64 1012.64 1012.52 1012.40 1012.36 1012.68 1013.24 1013.96 1014.24 1014.60 1014.92 1015.16 1015.60 1016.04 1016.36 1016.72 1017.04 1017.36 1017.68 1018.12 1018.40 1018.76 1019.08 1019.28 1019.44 1019.52 1019.52 1018.96 1019.00 1018.56 1018.12 1017.88 1017.76 1017.64 1017.48 1017.60 1017.72 1018.56 1018.76 1019.08 1019.28 1019.40 1019.36 1019.40 1019.36 1019.00 1018.96 1019.04 1019.04 1019.04 1019.04 1018.60 1018.24 1018.08 1017.88 1017.68 1017.48 1017.24 1017.00
1012.16 1012.08 1012.24 1012.32 1012.36 1012.40 1012.44 1012.44 1012.60 1012.92 1013.76 1014.28 1014.72 1015.16 1015.48 1015.80 1016.16 1016.48 1016.76 1016.92 1017.16 1017.52 1017.80 1018.20 1018.72 1018.84 1019.16 1019.44 1019.60 1019.56 1019.44 1019.32 1019.20 1018.68 1018.40 1018.12 1017.92 1017.80 1017.76 1017.80 1018.16 1018.56 1018.76 1018.88 1019.00 1019.00 1018.96 1018.96 1018.84 1018.80 1018.76 1018.72 1018.68 1018.72 1018.52 1018.04 1017.80 1017.60 1017.52 1017.40 1017.32 1017.04 1016.80
Wind_Speed
6 7 7 6 6 6 6 7 6 5 6 5 5 6 5 6 5 5 4 4 4 4 4 4 4 4 4 5 5 3 1 3 4 3 3 1 1 2 2 2 2 1 0 3 9 5 2 3 2 0 2 3 3 3 5 6 4 2 5 4 4 7 7
8 7 7 7 6 6 6 5 6 6 6 6 6 6 6 6 5 5 5 5 5 4 5 5 5 5 6 5 5 5 5 5 5 5 2 3 2 3 2 3 3 2 3 5 7 3 4 4 4 2 3 2 4 3 3 3 4 5 6 6 5 8 8
7 7 7 7 7 6 6 6 6 6 6 6 6 6 6 6 5 5 5 5 5 6 6 6 6 6 5 6 6 5 5 5 5 5 6 5 5 4 4 1 0 3 5 4 4 2 2 3 4 4 2 3 5 1 3 4 6 7 8 7 6 8 7
8 8 8 7 7 7 7 6 6 6 6 6 6 5 5 6 5 5 5 5 5 5 5 5 5 5 5 5 5 6 6 6 5 5 5 6 5 5 6 5 4 5 4 4 4 3 3 4 4 4 3 4 5 6 4 7 7 7 7 7 8 9 9
8 7 8 8 8 8 7 6 6 6 6 6 6 5 5 5 5 4 4 4 4 4 5 4 4 5 5 5 5 5 5 5 5 5 6 6 7 5 6 5 5 4 4 5 4 3 4 4 4 4 5 5 5 5 5 3 5 7 8 9 9 8 8
9 9 8 9 8 7 7 6 6 6 6 6 6 6 6 6 5 4 4 4 4 4 5 5 5 5 5 5 5 6 6 6 6 6 6 6 6 6 5 4 5 4 4 4 4 4 4 4 4 5 4 4 5 6 7 6 5 7 8 8 9 9 9
9 9 8 8 8 7 7 7 6 6 6 6 6 7 7 6 5 5 5 5 5 5 5 5 4 4 4 5 5 5 6 5 5 5 5 5 5 5 4 4 5 4 4 2 3 3 3 3 4 5 5 5 5 7 6 6 7 6 5 8 9 9 6
8 8 8 8 8 8 8 8 7 6 6 6 7 7 8 6 7 6 6 6 5 5 4 4 4 4 4 4 5 5 5 4 4 4 4 5 4 5 5 4 3 3 4 4 4 3 5 4 4 4 5 6 6 5 5 5 6 7 7 6 5 5 4
8 8 8 7 7 7 7 8 8 7 6 7 7 8 8 7 7 7 7 6 6 6 5 5 4 4 3 4 4 4 4 3 3 3 4 4 4 3 4 3 2 3 2 4 4 4 4 5 5 4 4 5 6 6 6 6 5 5 8 7 7 6 4
9 9 8 8 8 8 7 8 8 8 7 7 8 8 8 8 7 7 7 7 7 6 6 5 4 4 4 4 4 4 4 4 3 3 2 3 3 1 2 2 2 1 3 3 2 3 4 4 5 5 5 5 5 5 6 6 6 5 5 6 7 9 8
9 9 8 8 8 8 8 7 7 8 8 7 8 8 9 9 8 9 7 7 7 6 6 6 6 5 4 4 4 3 3 4 4 4 3 3 2 2 2 1 1 1 2 2 3 3 3 3 4 5 5 5 4 5 6 7 7 7 7 5 5 7 9
9 8 8 8 8 8 9 8 8 8 8 8 9 9 10 10 9 9 8 8 7 7 7 6 6 6 5 5 4 4 4 4 4 3 3 3 2 2 2 2 1 1 0 1 2 2 2 2 3 4 5 5 5 5 6 6 8 6 6 7 6 7 8
10 9 8 7 7 9 10 9 8 8 8 8 9 11 10 11 11 10 9 9 9 8 8 7 7 6 6 5 5 5 5 4 5 4 4 4 3 3 3 4 2 1 0 2 3 2 2 3 2 3 4 4 5 5 5 6 8 9 7 8 9 9 10
8 7 4 3 8 7 6 5 6 7 8 8 9 11 11 11 12 11 11 10 10 9 9 8 7 7 6 6 5 5 5 5 5 5 4 3 3 3 3 2 3 3 2 3 2 2 3 3 3 4 4 4 4 4 5 6 8 9 7 6 7 8 9
6 2 4 5 3 5 7 5 7 8 7 8 9 11 12 11 11 12 12 11 11 11 11 10 9 8 7 7 6 5 6 6 6 5 4 5 5 3 2 3 2 2 2 3 3 5 4 2 3 4 4 3 3 4 4 6 7 8 9 8 8 8 8
5 4 6 5 4 8 7 4 8 9 9 9 8 10 11 12 12 13 12 12 12 11 11 11 10 9 9 9 8 7 7 7 6 6 6 5 6 5 4 4 3 3 2 4 3 5 4 5 4 4 4 4 5 5 6 6 6 8 9 9 8 9 8
5 7 8 7 8 7 6 6 8 7 8 8 9 10 12 12 13 12 12 12 12 12 12 11 11 11 11 11 10 9 8 8 7 7 7 6 6 4 5 4 3 3 3 4 4 4 4 4 4 5 5 5 6 6 5 5 6 7 8 9 8 8 8
5 5 5 5 5 5 7 8 8 11 9 7 5 7 11 12 13 13 12 14 14 14 14 13 13 12 10 10 10 9 9 8 7 7 6 6 4 4 4 4 3 3 2 4 4 4 4 4 5 6 6 6 6 6 5 6 6 7 8 10 9 9 9
3 6 6 6 6 5 7 9 6 7 9 9 9 11 11 10 10 14 14 15 15 15 14 13 13 12 11 11 10 9 9 8 8 7 6 5 6 5 4 4 4 3 3 3 4 4 4 5 5 6 7 7 8 8 8 8 8 9 9 10 10 10 9
4 5 5 5 4 5 7 7 9 10 10 10 10 11 10 10 7 13 15 15 14 14 13 13 12 12 11 11 11 10 9 8 8 7 7 6 5 5 4 5 3 3 3 3 3 4 4 4 5 6 6 7 7 7 8 8 8 9 9 10 10 10 10
5 5 4 4 2 3 4 6 7 5 5 6 10 11 13 8 5 8 13 14 14 12 13 12 11 11 11 11 10 10 9 8 8 7 6 6 5 5 5 4 5 4 5 3 1 2 3 5 5 6 6 6 7 8 8 8 9 9 9 9 9 9 9
2 5 4 4 4 3 5 5 4 5 4 5 6 9 11 11 7 11 17 13 14 12 12 12 11 11 11 11 9 9 8 8 8 7 6 6 5 5 5 5 5 5 5 7 5 4 5 4 4 6 6 6 7 8 8 8 9 9 9 9 10 9 10
2 2 3 4 3 4 4 5 6 7 8 8 8 8 10 8 9 10 11 14 14 11 12 11 10 15 13 10 10 8 7 7 7 6 6 6 6 6 6 5 5 9 6 4 2 5 5 5 4 5 7 7 8 8 9 9 9 9 9 10 10 10 10
4 5 4 4 4 5 6 5 6 7 7 7 9 10 10 10 9 10 14 10 9 11 8 7 11 13 11 10 9 8 8 7 7 6 6 6 6 6 6 6 5 9 8 7 7 9 9 10 10 9 10 10 9 8 9 10 10 10 10 11 10 11 11
4 4 4 5 6 5 6 6 7 7 7 6 6 7 7 10 10 11 11 11 8 7 4 9 13 13 12 11 7 7 7 6 6 6 6 6 6 6 6 5 5 4 6 7 5 8 12 13 13 13 12 11 12 13 12 10 10 11 11 11 11 11 11
4 4 4 5 5 6 7 7 7 7 7 6 4 6 6 7 6 6 6 5 6 2 7 9 14 13 13 11 9 4 5 6 5 6 7 7 6 5 5 4 5 5 4 8 4 8 8 8 15 15 13 14 15 15 15 17 17 13 11 12 13 13 12
3 4 5 6 6 7 7 7 7 6 6 5 6 6 7 8 9 8 7 6 6 7 7 8 14 13 11 9 5 1 6 7 6 6 6 6 5 5 6 5 5 5 5 5 5 6 6 7 5 5 7 8 9 12 17 20 19 19 17 13 13 14 12
4 5 6 6 7 8 8 7 7 7 6 7 7 7 8 9 8 9 9 5 8 9 6 11 13 12 11 10 9 5 5 5 5 6 6 6 6 6 5 6 6 6 6 6 6 3 5 7 7 8 9 10 11 12 12 10 11 12 11 12 14 15 14
4 5 6 7 7 8 8 7 7 7 7 6 6 6 7 8 9 8 6 9 8 9 6 10 13 12 11 8 6 1 4 5 6 6 6 6 7 6 6 7 7 6 6 7 4 7 2 3 7 9 11 11 12 12 11 11 12 12 13 13 13 13 12
6 6 6 7 8 8 7 7 7 6 7 7 7 7 7 7 7 7 9 8 9 8 8 10 13 13 12 10 7 7 5 5 6 6 6 6 7 7 7 7 7 6 6 6 8 10 9 4 6 10 11 12 11 11 11 11 12 14 16 18 19 20 22
6 6 6 7 7 7 7 6 7 6 7 7 7 7 7 4 4 5 7 9 8 10 9 10 12 12 11 11 8 4 4 5 5 5 6 7 7 7 7 6 5 8 8 8 2 12 10 6 8 10 11 12 12 12 11 11 10 11 13 14 17 20 21
6 6 7 6 6 7 8 7 7 7 7 7 7 6 6 5 6 6 7 7 10 11 9 9 11 10 9 9 5 2 3 5 6 7 6 6 6 6 6 7 12 9 9 5 9 7 4 3 7 9 10 11 12 15 14 13 13 13 13 13 12 10 10
6 6 6 6 6 7 7 7 7 7 7 7 7 6 5 6 9 8 8 8 8 9 10 8 8 9 9 7 6 2 3 6 6 5 5 5 5 5 5 6 4 3 10 12 9 10 9 8 6 9 9 10 12 15 14 14 12 12 14 13 14 14 16
7 7 7 6 7 7 7 8 7 7 8 7 6 3 5 8 8 7 8 6 7 8 7 9 8 10 8 7 6 5 4 6 5 5 4 4 5 5 5 6 6 10 12 11 9 5 4 4 6 8 9 11 11 11 12 12 15 15 16 16 15 15 15
8 7 7 8 7 8 7 8 8 7 6 5 1 6 10 9 10 10 8 7 7 8 9 9 7 7 8 7 6 8 6 3 5 5 5 5 5 5 6 6 2 8 8 5 3 4 6 7 9 8 10 13 13 12 12 12 12 12 14 14 13 13 13
9 8 7 8 8 8 8 8 8 5 2 6 8 10 9 10 10 9 8 7 7 8 8 7 9 6 6 6 6 6 6 4 3 4 4 5 5 5 6 7 1 7 12 6 5 6 7 9 9 8 9 10 12 13 12 12 13 13 13 13 13 13 12
10 9 9 8 8 8 8 7 4 3 6 7 8 8 8 8 8 8 8 7 7 7 7 7 8 10 8 9 8 8 4 1 2 3 4 5 6 6 6 6 8 15 13 14 13 13 12 13 11 14 16 16 16 15 10 12 12 12 13 13 13 13 13
Wind_Direction
139 124 128 116 107 107 120 122 118 116 109 96 89 85 81 75 67 67 59 51 58 70 80 75 60 61 52 56 37 16 3 54 71 80 75 57 173 111 115 172 211 254 207 300 279 261 257 291 293 207 218 273 302 311 305 302 317 305 283 284 292 298 310
133 144 141 134 127 122 126 124 107 101 94 92 92 93 90 90 81 74 64 57 48 69 86 79 71 63 53 53 60 48 39 40 20 25 55 55 70 78 140 141 166 199 172 199 235 232 257 253 253 268 299 224 223 256 284 287 285 263 247 234 250 257 225
150 153 148 137 131 141 128 125 129 124 120 120 113 102 100 95 96 95 86 76 63 55 57 71 82 76 67 65 54 55 52 62 59 40 32 27 23 21 12 36 40 187 172 181 215 219 230 242 284 281 279 312 316 265 221 263 261 263 260 258 234 246 276
157 154 145 153 148 149 144 146 144 130 127 122 121 113 99 99 93 85 82 83 77 65 72 75 64 78 89 82 79 71 53 46 49 47 51 31 21 30 4 12 8 19 11 351 356 334 345 314 304 294 299 294 288 292 237 221 248 262 275 279 267 265 264
162 163 152 162 158 161 149 154 143 141 134 134 135 131 127 118 110 103 100 94 84 88 84 84 91 89 80 73 66 64 68 61 52 51 43 36 19 27 26 9 19 11 12 359 21 346 330 333 322 304 293 287 282 280 300 307 270 259 258 258 266 271 257
172 173 165 164 164 169 162 162 155 155 148 150 150 143 141 142 126 128 119 102 97 84 79 80 75 67 71 80 78 72 66 63 60 49 50 44 39 24 11 10 356 18 22 17 349 345 339 334 309 303 302 319 306 302 292 275 255 251 247 245 244 245 250
180 178 182 171 172 175 169 163 170 166 159 161 157 157 153 159 147 129 117 108 104 103 92 82 78 80 93 99 89 80 81 75 68 66 60 53 50 41 26 15 14 8 21 2 352 318 308 309 316 315 314 303 293 289 292 286 284 287 265 245 227 234 250
183 185 193 180 179 183 173 166 180 170 166 169 164 158 158 165 144 144 136 136 130 121 118 115 110 106 79 80 89 86 76 77 69 67 62 51 42 40 37 21 354 29 6 3 345 334 334 328 319 325 317 313 306 289 282 289 308 291 294 297 284 286 253
189 188 196 190 180 189 177 169 178 176 174 169 162 156 162 165 158 151 155 147 144 143 141 140 139 117 122 114 113 116 110 100 113 117 115 96 64 56 39 15 352 30 9 11 327 0 341 339 318 305 294 295 310 311 319 310 300 296 312 316 319 277 268
199 196 198 190 186 182 186 175 179 182 171 171 160 156 165 167 165 165 164 157 156 152 151 149 137 127 143 140 116 134 130 134 119 95 83 92 120 87 71 47 3 348 41 359 340 349 342 328 320 315 305 302 311 305 306 308 310 314 311 333 312 315 330
202 207 206 195 189 186 191 188 184 179 180 176 162 161 170 169 169 174 168 166 166 162 159 155 155 151 161 141 145 147 133 142 147 146 143 134 120 115 112 74 44 356 48 335 355 337 322 329 314 310 312 308 301 294 303 299 301 310 305 297 285 303 337
202 208 212 210 192 193 198 197 196 187 179 180 171 168 175 173 175 177 175 174 171 172 170 163 162 166 174 148 169 153 151 182 164 149 145 139 159 161 157 180 210 214 129 266 264 260 264 281 308 314 307 306 301 301 295 292 289 287 312 313 318 309 314
203 205 212 228 209 210 203 206 202 198 189 189 182 175 181 178 179 180 181 180 177 176 177 169 177 173 177 168 179 174 165 187 179 176 169 182 171 187 178 198 195 305 344 272 233 209 249 250 245 291 300 294 301 297 291 282 280 288 297 300 306 310 300
221 216 177 236 259 235 224 234 223 204 208 201 190 184 188 184 182 185 185 186 183 183 179 178 183 174 189 175 191 173 170 195 190 183 178 173 183 211 223 238 202 205 204 268 289 275 242 253 258 247 243 256 267 272 278 288 288 289 291 297 303 300 306
239 231 161 186 166 340 318 308 276 252 231 210 218 197 199 188 189 188 189 189 189 187 186 183 182 183 189 183 183 177 188 194 202 181 190 204 180 189 213 258 243 182 254 282 288 283 282 271 273 273 265 265 280 288 288 290 292 293 295 303 297 301 299
235 240 244 233 215 147 188 221 293 300 267 238 219 221 212 198 196 192 192 191 191 193 192 189 185 189 189 185 186 185 194 198 198 185 199 205 205 184 203 209 228 198 214 246 257 271 286 272 272 285 297 288 282 282 282 281 288 288 291 293 295 291 292
237 230 225 230 239 218 203 202 197 208 258 286 263 233 228 218 201 198 195 193 193 195 195 192 190 195 193 189 192 190 193 196 195 196 203 201 206 192 209 207 223 213 234 249 262 287 285 280 271 282 292 286 275 275 269 255 251 267 280 285 286 291 296
230 221 244 247 247 257 263 244 220 220 204 203 233 291 269 231 212 210 201 197 197 196 195 194 191 195 193 192 196 194 195 195 197 200 203 204 198 215 212 219 234 223 228 265 268 264 284 313 310 308 300 298 291 288 288 285 285 282 286 286 289 286 287
252 255 236 225 219 216 250 247 235 239 235 215 206 210 224 245 236 221 214 205 203 197 196 194 192 194 194 192 196 195 196 197 195 199 193 205 200 208 222 228 212 226 241 258 274 293 301 296 300 298 299 303 307 309 301 295 284 279 278 280 285 289 285
308 260 236 218 236 236 234 241 248 252 247 246 243 239 233 220 239 244 225 218 210 201 195 193 193 193 196 190 195 192 196 193 194 196 193 201 202 201 206 216 217 216 237 251 267 272 282 290 286 287 286 287 287 290 292 290 291 289 288 287 285 283 285
356 338 347 347 304 255 242 263 269 273 284 267 264 259 259 228 216 265 256 228 215 206 197 189 191 196 197 191 192 190 191 189 192 189 192 200 196 198 204 213 214 213 221 229 314 316 314 303 306 299 302 304 300 299 296 293 290 285 284 284 284 288 286
340 307 319 323 319 311 301 287 244 227 238 260 257 254 250 253 207 226 235 229 218 208 201 193 192 189 190 189 190 188 188 188 192 183 189 196 189 197 202 211 208 225 92 73 52 17 345 358 305 286 293 296 298 298 296 294 291 289 285 283 285 286 286
223 250 275 276 287 299 288 276 274 265 254 244 246 252 253 234 236 238 236 239 225 226 214 201 180 170 180 182 182 181 177 188 190 187 191 191 187 200 209 203 197 107 114 110 137 248 262 261 246 281 290 299 303 302 301 299 296 292 292 289 288 291 289
329 315 321 301 284 276 266 258 260 264 262 259 248 243 236 241 229 227 235 233 251 228 192 199 145 153 147 165 171 169 168 181 193 192 194 195 194 202 212 222 227 158 167 172 202 209 220 219 231 231 242 261 276 285 295 291 288 290 290 289 287 285 284
294 299 293 292 286 280 281 269 252 247 249 245 257 263 268 262 241 226 229 225 211 180 176 100 121 110 109 98 99 148 171 181 189 192 203 204 208 207 216 220 225 217 208 218 244 205 209 221 226 225 230 236 238 243 244 259 276 280 281 284 284 282 285
291 284 277 280 278 260 252 255 256 250 242 244 251 262 253 265 241 185 182 186 165 175 90 112 103 97 82 82 74 69 175 186 166 212 204 209 218 217 217 222 232 219 242 133 217 256 269 231 210 222 225 227 234 233 236 236 241 252 269 270 274 274 272
298 293 292 286 283 276 262 259 263 258 257 241 230 240 240 246 246 230 213 194 154 110 118 108 108 106 106 105 137 197 242 183 195 204 201 209 216 230 234 244 247 239 236 226 247 257 263 272 287 231 234 243 254 236 226 233 239 239 238 248 260 270 275
301 303 297 292 284 278 272 263 256 255 254 246 231 228 231 230 230 240 237 174 120 125 137 138 125 127 136 163 190 217 241 171 196 217 217 216 223 232 234 236 247 260 262 261 266 312 279 287 289 285 287 290 287 288 288 271 242 230 232 234 246 258 268
301 300 297 292 286 279 269 255 249 250 254 257 250 236 227 230 222 221 157 133 132 132 142 142 136 150 165 179 160 273 231 176 219 223 218 224 227 232 232 230 237 243 246 259 95 104 41 299 281 286 288 288 287 286 282 273 272 275 274 272 270 268 266
301 298 296 291 283 280 273 259 249 247 245 243 250 250 244 236 224 186 159 148 136 142 150 170 160 160 168 164 153 205 202 202 216 215 234 237 234 237 237 239 242 250 255 258 126 137 133 199 269 280 284 287 288 288 283 285 275 258 242 243 249 256 264
290 291 291 291 290 285 278 266 256 243 244 242 234 240 247 221 168 161 152 148 154 152 161 172 170 169 167 163 184 201 222 219 227 237 232 228 240 246 247 212 233 248 264 270 181 143 154 185 268 278 284 287 287 285 289 292 288 286 275 246 240 245 248
282 282 282 288 291 283 276 268 259 254 251 250 253 245 235 204 177 137 162 176 142 153 157 163 175 164 159 170 193 236 302 275 241 234 238 244 237 250 257 196 194 222 235 317 58 89 86 316 286 285 285 289 285 286 291 294 291 290 289 295 289 275 261
269 275 284 285 282 282 278 270 258 257 256 252 253 246 214 187 154 150 166 156 153 150 147 150 164 155 161 166 201 284 274 274 256 249 255 261 281 278 279 285 182 78 45 56 58 44 35 28 320 293 292 284 285 284 293 295 303 308 302 298 291 284 282
280 281 280 280 282 278 274 269 262 256 260 255 260 254 139 117 145 141 155 145 132 133 137 143 152 167 162 163 179 215 250 255 260 260 270 288 285 295 297 306 86 82 72 48 53 343 338 293 274 283 280 276 277 311 331 300 291 287 284 284 282 280 278
277 279 278 278 277 273 267 265 258 256 259 282 226 170 140 140 146 156 146 129 110 99 105 118 146 156 159 176 184 210 257 329 22 310 301 286 288 286 296 295 44 114 118 137 135 223 241 252 246 267 271 267 282 292 287 286 287 284 276 275 275 276 277
265 264 265 269 273 270 272 262 256 251 235 129 123 122 135 152 152 143 136 127 124 118 115 110 123 142 155 174 197 211 255 307 52 281 280 288 293 293 291 296 279 47 347 345 313 299 290 281 270 275 286 286 280 278 276 279 285 281 276 274 272 272 272
256 252 251 256 258 266 265 278 285 205 157 141 128 132 134 127 133 126 128 129 126 123 120 126 141 146 165 184 199 206 193 148 284 325 332 306 297 296 290 300 342 345 332 326 316 307 301 292 285 281 276 276 276 277 274 281 279 275 274 272 271 270 268